TimeCST,TemperatureF,Dew PointF,Humidity,Sea Level PressureIn,VisibilityMPH,Wind Direction,Wind SpeedMPH,Gust SpeedMPH,PrecipitationIn,Events,Conditions,WindDirDegrees,DateUTC
12:10 AM,30.2,23.0,75,30.10,10.0,North,5.8,-,N/A,,Scattered Clouds,350,2013-02-06 06:10:00
12:52 AM,28.9,21.9,75,30.13,10.0,NW,4.6,-,N/A,,Clear,320,2013-02-06 06:52:00
1:52 AM,27.0,21.9,81,30.14,10.0,WNW,3.5,-,N/A,,Clear,300,2013-02-06 07:52:00
2:52 AM,23.0,19.9,88,30.15,9.0,Calm,Calm,-,N/A,,Clear,0,2013-02-06 08:52:00
3:52 AM,24.1,19.9,84,30.16,7.0,Calm,Calm,-,N/A,,Clear,0,2013-02-06 09:52:00
4:52 AM,21.0,18.0,88,30.17,7.0,Calm,Calm,-,N/A,,Clear,0,2013-02-06 10:52:00
5:52 AM,19.9,17.1,89,30.18,6.0,Calm,Calm,-,N/A,,Clear,0,2013-02-06 11:52:00
6:52 AM,19.4,17.6,93,30.18,6.0,Calm,Calm,-,N/A,,Clear,0,2013-02-06 12:52:00
7:52 AM,19.9,18.0,92,30.19,5.0,Calm,Calm,-,N/A,,Clear,0,2013-02-06 13:52:00
8:52 AM,28.0,23.0,81,30.19,6.0,East,4.6,-,N/A,,Haze,90,2013-02-06 14:52:00
9:52 AM,33.1,26.1,75,30.20,8.0,SSE,5.8,-,N/A,,Clear,150,2013-02-06 15:52:00
10:52 AM,37.0,27.0,67,30.20,10.0,SW,11.5,-,N/A,,Clear,220,2013-02-06 16:52:00
11:52 AM,39.9,30.9,70,30.18,10.0,SSW,9.2,-,N/A,,Clear,210,2013-02-06 17:52:00
12:52 PM,41.0,30.9,67,30.14,10.0,South,9.2,-,N/A,,Clear,190,2013-02-06 18:52:00
1:52 PM,44.1,32.0,63,30.12,10.0,SSW,9.2,-,N/A,,Clear,200,2013-02-06 19:52:00
2:52 PM,44.1,32.0,63,30.11,10.0,South,9.2,-,N/A,,Clear,170,2013-02-06 20:52:00
3:52 PM,42.1,32.0,67,30.09,10.0,SE,9.2,-,N/A,,Clear,140,2013-02-06 21:52:00
4:52 PM,41.0,32.0,70,30.08,10.0,ESE,5.8,-,N/A,,Clear,120,2013-02-06 22:52:00
5:52 PM,37.9,30.9,76,30.08,10.0,SE,6.9,-,N/A,,Clear,130,2013-02-06 23:52:00
6:52 PM,37.9,30.9,76,30.08,10.0,SE,5.8,-,N/A,,Clear,130,2013-02-07 00:52:00
7:52 PM,39.0,30.9,73,30.05,10.0,SE,9.2,-,N/A,,Partly Cloudy,140,2013-02-07 01:52:00
8:52 PM,37.9,30.9,76,30.04,10.0,SSE,12.7,19.6,N/A,,Clear,160,2013-02-07 02:52:00
9:52 PM,37.0,30.0,76,30.03,10.0,SSE,11.5,-,N/A,,Mostly Cloudy,160,2013-02-07 03:52:00
10:52 PM,37.4,30.2,75,30.01,10.0,SSE,9.2,-,N/A,,Overcast,160,2013-02-07 04:52:00
11:52 PM,37.9,33.1,83,30.05,6.0,SSE,5.8,-,0.05,Rain,Light Rain,150,2013-02-07 05:52:00